Forside
METAR-TAF:

METAR-TAF

Lufthavne :

Cloncurry, Australien

Breddekreds: 20-40-07S, længdekreds: 140-30-16E, højde: 188 m

Aktuelle vejr

Denne rapport blev lavet for 10 minutter siden, kl. 02:00 UTC
Vind 9 kt fra syd
Temperatur 35°C
Fugtighed 12%
Tryk 1011 hPa
Sigt 10 km eller mere

METAR: YCCY 210200Z AUTO 19009KT 9999 // NCD 35/01 Q1011

Tid: 12:10 (02:10 UTC)


TAF: fraværende

Vejrobservationer og prognoser fra mere end 4000 lufthavne (METAR og TAF).

De gule og røde prikker repræsenterer de meteorologiske stationer.

Flyt musen over at se navnet på stationen.

Så klik over at se vejr observationer og prognoser.

At skifte det kort: Klik på de grønne knapper med et sort kors for at zoome ind; på den grønne knap med en bindestreg for at zoome ud; eller på de grønne pile for tilstødende kort.


METAR-TAF: